Location: Home
(42.5358°N, 72.7383°W)
Time: 13:26:39
(UTC-05:00)

Explorer 11/Cluster Stage 4 - Pass Details

Date: 16 December 2025
Orbit: 463 x 1179 km, 28.8° (Epoch: 21 January)

Event Time Altitude Azimuth Distance (km) Brightness Sun altitude
Rises 18:33:09 0° 242° (WSW) 4,052 11.5 -23.8°
Reaches altitude 10° 18:36:33 10° 231° (SW) 3,064 10.4 -24.4°
Maximum altitude 18:42:40 27° 178° (S) 1,991 8.6 -25.5°
Enters shadow 18:45:10 22° 148° (SSE) 2,146 8.6 -26.0°
